TimeCDT,TemperatureF,Dew PointF,Humidity,Sea Level PressureIn,VisibilityMPH,Wind Direction,Wind SpeedMPH,Gust SpeedMPH,PrecipitationIn,Events,Conditions,WindDirDegrees,DateUTC
12:53 AM,27.0,19.9,75,30.22,10.0,Calm,Calm,-,N/A,,Overcast,0,2013-03-26 05:53:00
1:53 AM,24.1,19.0,81,30.24,10.0,Calm,Calm,-,N/A,,Overcast,0,2013-03-26 06:53:00
2:53 AM,25.0,19.0,78,30.23,10.0,Calm,Calm,-,N/A,,Overcast,0,2013-03-26 07:53:00
3:53 AM,25.0,19.0,78,30.23,10.0,Calm,Calm,-,N/A,,Overcast,0,2013-03-26 08:53:00
4:53 AM,24.1,19.0,81,30.23,10.0,Calm,Calm,-,N/A,,Overcast,0,2013-03-26 09:53:00
5:53 AM,23.0,19.0,85,30.24,10.0,Calm,Calm,-,N/A,,Overcast,0,2013-03-26 10:53:00
6:53 AM,21.9,18.0,85,30.26,10.0,Calm,Calm,-,N/A,,Overcast,0,2013-03-26 11:53:00
7:53 AM,24.1,19.0,81,30.27,10.0,Calm,Calm,-,N/A,,Overcast,0,2013-03-26 12:53:00
8:53 AM,27.0,21.9,81,30.28,10.0,Calm,Calm,-,N/A,,Overcast,0,2013-03-26 13:53:00
9:53 AM,33.1,21.0,61,30.28,10.0,NE,3.5,-,N/A,,Overcast,50,2013-03-26 14:53:00
10:53 AM,36.0,19.0,50,30.28,10.0,Variable,4.6,-,N/A,,Overcast,0,2013-03-26 15:53:00
11:53 AM,36.0,18.0,48,30.27,10.0,Variable,3.5,-,N/A,,Overcast,0,2013-03-26 16:53:00
12:53 PM,37.9,16.0,41,30.27,10.0,Variable,3.5,-,N/A,,Overcast,0,2013-03-26 17:53:00
1:53 PM,37.0,17.1,44,30.27,10.0,Variable,4.6,-,N/A,,Overcast,0,2013-03-26 18:53:00
2:53 PM,37.0,15.1,41,30.26,10.0,Variable,4.6,-,N/A,,Overcast,0,2013-03-26 19:53:00
3:53 PM,37.9,14.0,38,30.26,10.0,Variable,4.6,-,N/A,,Overcast,0,2013-03-26 20:53:00
4:53 PM,37.0,15.1,41,30.26,10.0,Calm,Calm,-,N/A,,Overcast,0,2013-03-26 21:53:00
5:53 PM,37.0,15.1,41,30.27,10.0,Calm,Calm,-,N/A,,Overcast,0,2013-03-26 22:53:00
6:53 PM,36.0,16.0,44,30.28,10.0,Calm,Calm,-,N/A,,Overcast,0,2013-03-26 23:53:00
7:53 PM,35.1,17.1,48,30.29,10.0,Calm,Calm,-,N/A,,Overcast,0,2013-03-27 00:53:00
8:53 PM,32.0,19.0,59,30.29,10.0,Calm,Calm,-,N/A,,Overcast,0,2013-03-27 01:53:00
9:53 PM,30.0,21.0,69,30.29,10.0,Calm,Calm,-,N/A,,Overcast,0,2013-03-27 02:53:00
10:53 PM,28.9,21.9,75,30.30,10.0,South,3.5,-,N/A,,Overcast,170,2013-03-27 03:53:00
11:53 PM,28.9,21.9,75,30.30,10.0,Calm,Calm,-,N/A,,Overcast,0,2013-03-27 04:53:00